Total_Precipitation_Accumulation
0.20 0.28 0.56 0.59 0.55 0.49 0.47 0.45 0.49 0.48 0.46 0.49 0.52 0.55 0.55 0.51 0.45 0.42 0.40 0.44 0.55 0.69 0.81 0.85 0.82 0.74 0.68 0.62 0.47 0.33 0.29 0.26 0.21 0.17 0.17 0.22 0.29 0.30 0.25 0.23 0.25 0.30 0.39
0.18 0.30 0.60 0.65 0.65 0.62 0.59 0.49 0.43 0.45 0.46 0.49 0.56 0.58 0.59 0.55 0.49 0.43 0.44 0.53 0.64 0.77 0.81 0.81 0.73 0.58 0.54 0.48 0.35 0.25 0.21 0.16 0.12 0.08 0.06 0.10 0.18 0.27 0.26 0.23 0.26 0.35 0.41
0.21 0.36 0.58 0.69 0.71 0.72 0.64 0.51 0.42 0.43 0.49 0.55 0.58 0.60 0.63 0.60 0.53 0.52 0.54 0.62 0.72 0.84 0.78 0.68 0.58 0.45 0.40 0.32 0.25 0.21 0.18 0.15 0.10 0.09 0.09 0.13 0.19 0.29 0.28 0.25 0.32 0.40 0.46
0.30 0.47 0.57 0.74 0.76 0.76 0.72 0.60 0.52 0.48 0.52 0.59 0.64 0.68 0.72 0.68 0.61 0.64 0.64 0.64 0.69 0.75 0.68 0.55 0.52 0.43 0.33 0.26 0.23 0.24 0.23 0.18 0.13 0.12 0.16 0.17 0.21 0.35 0.37 0.37 0.45 0.47 0.45
0.48 0.58 0.74 0.85 0.85 0.84 0.77 0.72 0.65 0.61 0.62 0.67 0.70 0.79 0.79 0.78 0.75 0.80 0.73 0.65 0.61 0.56 0.53 0.46 0.41 0.37 0.30 0.27 0.25 0.25 0.23 0.19 0.14 0.14 0.15 0.18 0.25 0.48 0.48 0.43 0.42 0.39 0.36
0.67 0.76 0.97 1.10 1.07 1.00 0.89 0.83 0.81 0.75 0.72 0.74 0.77 0.86 0.91 0.92 0.90 0.87 0.73 0.59 0.51 0.47 0.48 0.44 0.35 0.32 0.30 0.27 0.25 0.24 0.22 0.16 0.14 0.13 0.15 0.21 0.33 0.57 0.53 0.44 0.40 0.40 0.39
0.79 0.93 1.16 1.32 1.33 1.18 1.04 0.98 0.98 0.95 0.93 0.90 0.89 0.95 1.04 1.03 0.97 0.90 0.70 0.51 0.43 0.43 0.45 0.45 0.40 0.36 0.34 0.30 0.26 0.24 0.20 0.14 0.12 0.11 0.15 0.24 0.40 0.58 0.55 0.50 0.47 0.46 0.46
0.94 1.09 1.31 1.48 1.42 1.33 1.28 1.20 1.19 1.19 1.12 1.07 1.05 1.15 1.19 1.12 1.00 0.88 0.74 0.58 0.46 0.41 0.43 0.43 0.44 0.41 0.37 0.34 0.31 0.28 0.18 0.12 0.11 0.12 0.17 0.26 0.39 0.53 0.54 0.50 0.49 0.48 0.46
1.22 1.37 1.52 1.56 1.45 1.35 1.28 1.29 1.30 1.34 1.35 1.23 1.13 1.18 1.18 1.11 0.97 0.87 0.70 0.65 0.56 0.49 0.46 0.43 0.41 0.43 0.41 0.36 0.33 0.26 0.17 0.12 0.10 0.11 0.15 0.26 0.40 0.53 0.55 0.50 0.46 0.44 0.42
1.69 1.73 1.75 1.80 1.68 1.46 1.29 1.34 1.35 1.31 1.27 1.27 1.19 1.03 0.97 0.91 0.82 0.78 0.59 0.58 0.58 0.53 0.48 0.44 0.41 0.44 0.40 0.33 0.28 0.23 0.17 0.14 0.13 0.11 0.17 0.24 0.38 0.49 0.47 0.47 0.43 0.44 0.44
2.15 2.17 2.04 2.02 1.92 1.81 1.62 1.49 1.51 1.38 1.26 1.21 1.16 0.98 0.91 0.97 0.85 0.65 0.45 0.44 0.47 0.48 0.46 0.43 0.40 0.39 0.32 0.26 0.23 0.21 0.21 0.18 0.16 0.17 0.18 0.25 0.41 0.52 0.54 0.51 0.48 0.47 0.48
2.36 2.39 2.30 2.21 2.14 2.12 1.83 1.69 1.71 1.53 1.35 1.19 1.06 1.05 0.98 0.97 0.93 0.70 0.55 0.43 0.47 0.45 0.45 0.48 0.48 0.41 0.31 0.24 0.20 0.19 0.22 0.22 0.22 0.20 0.19 0.25 0.39 0.52 0.62 0.60 0.52 0.47 0.47
2.69 2.66 2.53 2.44 2.36 2.32 2.18 1.83 1.75 1.60 1.49 1.37 1.18 1.13 1.09 1.09 1.03 0.90 0.78 0.63 0.58 0.48 0.48 0.50 0.51 0.42 0.33 0.30 0.26 0.21 0.20 0.22 0.25 0.22 0.19 0.21 0.33 0.50 0.63 0.65 0.57 0.50 0.48
2.75 2.86 2.73 2.61 2.51 2.44 2.35 2.10 1.83 1.68 1.51 1.39 1.25 1.12 1.17 1.17 1.05 0.91 0.80 0.71 0.65 0.54 0.51 0.51 0.48 0.41 0.33 0.30 0.27 0.26 0.25 0.25 0.24 0.25 0.23 0.21 0.29 0.43 0.57 0.65 0.63 0.62 0.59
2.62 2.89 2.92 2.81 2.65 2.47 2.42 2.30 2.01 1.73 1.51 1.45 1.44 1.27 1.12 1.08 0.99 0.92 0.79 0.78 0.70 0.61 0.58 0.54 0.50 0.47 0.42 0.37 0.31 0.28 0.27 0.26 0.24 0.23 0.22 0.20 0.22 0.35 0.53 0.64 0.71 0.78 0.83
2.48 2.75 2.93 3.03 2.94 2.68 2.42 2.27 2.14 1.92 1.72 1.65 1.56 1.43 1.32 1.20 1.09 0.99 0.85 0.81 0.76 0.66 0.58 0.58 0.55 0.53 0.48 0.42 0.36 0.32 0.28 0.27 0.25 0.22 0.20 0.20 0.23 0.28 0.40 0.55 0.68 0.85 0.96
2.58 2.70 2.88 3.05 3.18 3.03 2.73 2.46 2.29 2.10 1.90 1.78 1.70 1.69 1.58 1.40 1.24 1.16 1.00 0.86 0.80 0.81 0.77 0.73 0.69 0.58 0.49 0.43 0.38 0.36 0.34 0.33 0.29 0.25 0.21 0.19 0.22 0.24 0.30 0.43 0.59 0.78 0.93
2.88 2.89 3.03 3.03 3.15 3.21 3.07 2.78 2.47 2.28 2.08 1.83 1.65 1.64 1.67 1.55 1.41 1.33 1.26 1.11 0.99 0.95 0.94 0.84 0.73 0.67 0.54 0.45 0.39 0.35 0.32 0.32 0.30 0.28 0.24 0.19 0.18 0.20 0.25 0.33 0.43 0.59 0.75
2.98 3.11 3.28 3.25 3.10 3.18 3.28 3.17 2.77 2.44 2.21 2.01 1.76 1.61 1.60 1.62 1.53 1.39 1.25 1.24 1.25 1.15 1.02 0.94 0.79 0.77 0.70 0.56 0.48 0.42 0.36 0.32 0.30 0.29 0.26 0.24 0.20 0.19 0.20 0.25 0.31 0.37 0.51
2.99 3.06 3.20 3.34 3.38 3.42 3.47 3.52 3.26 2.86 2.50 2.25 2.05 1.86 1.72 1.69 1.67 1.57 1.39 1.32 1.36 1.33 1.23 1.13 1.00 0.89 0.82 0.77 0.67 0.51 0.41 0.35 0.32 0.30 0.28 0.26 0.23 0.22 0.21 0.22 0.25 0.27 0.33
2.81 2.91 2.93 3.06 3.25 3.39 3.45 3.41 3.27 2.92 2.72 2.50 2.25 2.11 1.99 1.83 1.77 1.78 1.61 1.53 1.52 1.48 1.43 1.40 1.35 1.21 1.01 0.97 0.90 0.70 0.50 0.40 0.36 0.31 0.30 0.29 0.27 0.26 0.26 0.26 0.28 0.30 0.34
2.35 2.72 2.77 2.86 2.96 3.04 3.07 3.22 3.32 3.19 2.89 2.72 2.58 2.37 2.14 1.96 1.81 1.78 1.79 1.70 1.58 1.56 1.55 1.51 1.44 1.32 1.20 1.14 1.07 1.00 0.82 0.64 0.48 0.39 0.35 0.33 0.31 0.31 0.30 0.32 0.34 0.37 0.38
2.06 2.48 2.67 2.78 2.91 2.90 3.04 3.41 3.59 3.59 3.28 2.96 2.72 2.57 2.36 2.15 2.01 1.82 1.70 1.70 1.65 1.61 1.59 1.57 1.58 1.59 1.47 1.34 1.23 1.29 1.11 0.84 0.65 0.52 0.43 0.40 0.41 0.41 0.38 0.38 0.40 0.44 0.46
1.78 2.11 2.36 2.67 2.90 3.02 3.13 3.28 3.29 3.08 2.89 2.62 2.53 2.49 2.45 2.34 2.13 2.01 1.92 1.80 1.73 1.67 1.61 1.65 1.66 1.68 1.71 1.60 1.45 1.35 1.23 1.02 0.94 0.74 0.57 0.53 0.54 0.55 0.54 0.49 0.47 0.49 0.51
1.53 1.84 2.01 2.25 2.55 2.78 2.94 3.13 3.21 3.00 2.72 2.59 2.56 2.52 2.45 2.40 2.24 2.08 2.00 1.97 1.89 1.78 1.70 1.70 1.73 1.71 1.73 1.72 1.63 1.51 1.42 1.23 1.06 0.99 0.80 0.67 0.66 0.62 0.61 0.58 0.56 0.54 0.54
1.30 1.61 1.78 1.98 2.20 2.47 2.61 2.82 3.06 2.93 2.65 2.40 2.34 2.35 2.29 2.25 2.14 2.00 1.93 1.89 1.85 1.80 1.71 1.65 1.68 1.69 1.67 1.62 1.57 1.48 1.45 1.37 1.21 1.17 1.06 0.86 0.83 0.77 0.76 0.74 0.69 0.65 0.62